ONEWEB-0400 (50480 NORAD) Tracking and Keplerian Element Data

This shows tracking and keplerian element data for the satellite.

Feedback or suggestion? Click here.




ElementValue
Catalog50480
NameONEWEB-0400
Epoch Orbit130
Epoch Day140.58334491
Epoch Year2022
RAAN305.2462
Inclination87.2208
Eccentricity0.0003692
Argument of Perigee101.205
Mean Anonmoly129.4866
Mean Motion14.92505246
Decay Rate-0.00060845
L11 50480U 21132M 22140.58334491 -.00060845 00000+0 -59915-2 0 9997
L22 50480 87.2208 305.2462 0003692 101.2050 129.4866 14.92505246 1305

Live tracking and technical data element details for ONEWEB-0400 (NORAD 50480). ONEWEB-0400 can be tracked NOW for your location showing map with azimuth and elevation plus other details from your city location.

Track the satellite on the map from your city or location and see movement details for azimuth, elevation, latitude, longitude, range, height, and movement on the map or in text.







IsCatalogInMostPopularTable: catalog: 50480, numindb: 37
Update: records affected: 1



GetName: 50480 ONEWEB-0400

Hit Count: updated at: Mon, 23 May 2022 21:51:33 GMT